Location: Christian Reformed Church
(43.0975°N, 93.8113°W)
Time: 16:43:11
(UTC+00:00)

Cosmos 2266 Rocket - Visible Passes

Search period start: 14 March 2026 00:00
Search period end: 24 March 2026 00:00
Orbit: 935 x 1005 km, 82.9° (Epoch: 14 March)

Date Brightness Start Highest point End Pass type
(mag) Time Alt. Az. Time Alt. Az. Time Alt. Az.
14 Mar 4.1 01:27:15 10° SSE 01:33:17 53° E 01:39:28 10° NNE visible
14 Mar 6.0 03:13:48 10° SW 03:18:54 26° WNW 03:24:06 10° NNW visible
15 Mar 4.0 01:50:40 10° S 01:56:56 90° ENE 02:03:22 10° N visible
15 Mar 6.7 03:39:38 10° W 03:43:09 15° WNW 03:46:41 10° NNW visible
15 Mar 7.1 11:02:18 10° NE 11:04:58 13° ENE 11:07:38 10° E visible
16 Mar 4.8 02:14:36 10° SSW 02:20:44 54° WNW 02:27:00 10° N visible
16 Mar 6.8 11:24:28 10° NNE 11:29:16 22° ENE 11:34:01 10° ESE visible
17 Mar 4.4 00:53:31 10° SSE 00:59:21 42° E 01:05:17 10° NNE visible
17 Mar 5.7 02:39:09 10° SW 02:44:42 32° WNW 02:50:22 10° N visible
17 Mar 5.9 11:47:32 10° N 11:53:24 36° ENE 11:59:08 10° SE visible
18 Mar 4.0 01:16:40 10° S 01:22:55 72° E 01:29:18 10° NNE visible
18 Mar 6.5 03:04:29 10° WSW 03:08:52 19° WNW 03:13:18 10° NNW visible
19 Mar 4.4 01:40:23 10° SSW 01:46:40 68° W 01:53:03 10° N visible
19 Mar 7.1 03:31:36 10° WNW 03:33:13 11° WNW 03:34:50 10° NW visible
19 Mar 6.9 10:50:57 10° NNE 10:55:01 17° ENE 10:59:02 10° ESE visible
20 Mar 5.4 02:04:40 10° SW 02:10:33 40° WNW 02:16:33 10° N visible
20 Mar 6.3 11:13:44 10° NNE 11:19:13 29° ENE 11:24:34 10° SE visible
21 Mar 6.3 02:29:37 10° WSW 02:34:37 24° WNW 02:39:42 10° NNW visible
21 Mar 5.2 11:37:03 10° N 11:43:13 48° ENE 11:49:15 10° SSE visible
22 Mar 4.2 01:06:16 10° S 01:12:36 85° W 01:19:03 10° N visible
22 Mar 7.0 02:55:37 10° W 02:58:53 14° WNW 03:02:10 10° NNW visible
22 Mar 7.2 10:17:43 10° NNE 10:20:43 13° ENE 10:23:41 10° E visible
23 Mar 5.1 01:30:18 10° SSW 01:36:26 51° WNW 01:42:40 10° N visible
23 Mar 6.6 10:40:04 10° NNE 10:45:00 23° ENE 10:49:51 10° ESE visible
